IK1AMC-3 Weather Reports


time (UTC)temp
C
wind
direction
speed
KPH
gust
KPH
rain 1hr
cm
rain 24hr
cm
rain mn
cm
humidity
%
barometer
mb
20260507141928 20 0.0 0.0 0.00 0.00 0.00 63 1012.7
20260507135926 20 0.0 0.0 0.00 0.00 0.00 64 1013.0
20260507133925 21 0.0 0.0 0.00 0.00 0.00 59 1013.0
20260507131924 21 0.0 0.0 0.00 0.00 0.00 59 1013.2
20260507125923 21 0.0 0.0 0.00 0.00 0.00 60 1013.1
20260507123921 20 0.0 0.0 0.00 0.00 0.00 61 1013.1
20260507121919 20 0.0 0.0 0.00 0.00 0.00 61 1012.9
20260507115918 20 0.0 0.0 0.00 0.00 0.00 60 1013.0
20260507113917 20 0.0 0.0 0.00 0.00 0.00 61 1013.0
20260507111916 20 0.0 0.0 0.00 0.00 0.00 61 1013.2
20260507105914 21 0.0 0.0 0.00 0.00 0.00 59 1013.2
20260507103913 21 0.0 0.0 0.00 0.00 0.00 59 1013.3
20260507101911 21 0.0 0.0 0.00 0.00 0.00 59 1013.5
20260507095910 20 0.0 0.0 0.00 0.00 0.00 63 1013.2
20260507093909 20 0.0 0.0 0.00 0.00 0.00 64 1013.2
20260507091908 19 0.0 0.0 0.00 0.00 0.00 68 1013.0
20260507085906 18 0.0 0.0 0.00 0.00 0.00 69 1012.9
20260507083905 18 0.0 0.0 0.00 0.00 0.00 67 1012.6
20260507081904 19 0.0 0.0 0.00 0.00 0.00 65 1012.5
20260507075902 18 0.0 0.0 0.00 0.00 0.00 65 1012.4
20260507073901 18 0.0 0.0 0.00 0.00 0.00 66 1012.3
20260507071900 17 0.0 0.0 0.00 0.00 0.00 69 1012.2
20260507065859 17 0.0 0.0 0.00 0.00 0.00 69 1012.1
20260507063857 16 0.0 0.0 0.00 0.00 0.00 71 1011.9
20260507061856 16 0.0 0.0 0.00 0.00 0.00 76 1011.9
20260507055855 16 0.0 0.0 0.00 0.00 0.00 74 1011.7
20260507053853 16 0.0 0.0 0.00 0.00 0.00 79 1011.6
20260507051852 16 0.0 0.0 0.00 0.00 0.00 78 1011.4
20260507045851 16 0.0 0.0 0.00 0.00 0.00 72 1011.1
20260507043849 16 0.0 0.0 0.00 0.00 0.00 80 1010.9
20260507041848 15 0.0 0.0 0.00 0.00 0.00 83 1010.8
20260507035847 15 0.0 0.0 0.00 0.00 0.00 81 1010.7
20260507033845 15 0.0 0.0 0.00 0.00 0.00 81 1010.6
20260507031844 15 0.0 0.0 0.00 0.00 0.00 84 1010.5
20260507025843 15 0.0 0.0 0.00 0.00 0.00 82 1010.5
20260507023842 15 0.0 0.0 0.00 0.00 0.00 82 1010.6
20260507021840 15 0.0 0.0 0.00 0.00 0.00 81 1010.5
20260507015839 15 0.0 0.0 0.00 0.00 0.00 81 1010.4
20260507013838 15 0.0 0.0 0.00 0.00 0.00 81 1010.2
20260507011836 15 0.0 0.0 0.00 0.00 0.00 81 1010.1
20260507005835 15 0.0 0.0 0.00 0.00 0.00 82 1010.4
20260507003834 15 0.0 0.0 0.00 0.00 0.00 81 1010.4
20260507001832 16 0.0 0.0 0.00 0.00 0.00 81 1010.2
20260506235831 16 0.0 0.0 0.00 0.00 0.00 80 1010.2
20260506233830 16 0.0 0.0 0.00 0.00 0.00 81 1009.9
20260506231829 16 0.0 0.0 0.00 0.00 0.00 78 1010.1
20260506225827 17 0.0 0.0 0.00 0.00 0.00 75 1010.0
20260506223826 16 0.0 0.0 0.00 0.00 0.00 78 1009.9
20260506221825 17 0.0 0.0 0.00 0.00 0.00 76 1009.9
20260506215823 16 0.0 0.0 0.00 0.00 0.00 77 1009.9
20260506213822 16 0.0 0.0 0.00 0.00 0.00 77 1009.9
20260506211821 16 0.0 0.0 0.00 0.00 0.00 78 1009.8
20260506205820 17 0.0 0.0 0.00 0.00 0.00 76 1009.6
20260506203818 16 0.0 0.0 0.00 0.00 0.00 76 1009.6
20260506201817 17 0.0 0.0 0.00 0.00 0.00 74 1009.4
20260506195816 17 0.0 0.0 0.00 0.00 0.00 72 1009.2
20260506193814 17 0.0 0.0 0.00 0.00 0.00 74 1008.7
20260506191813 17 0.0 0.0 0.00 0.00 0.00 71 1008.4
20260506185812 17 0.0 0.0 0.00 0.00 0.00 70 1008.2
20260506183810 17 0.0 0.0 0.00 0.00 0.00 69 1007.8
20260506181809 17 0.0 0.0 0.00 0.00 0.00 71 1007.5
20260506175808 17 0.0 0.0 0.00 0.00 0.00 71 1007.1
20260506173806 18 0.0 0.0 0.00 0.00 0.00 66 1007.0
20260506171805 18 0.0 0.0 0.00 0.00 0.00 60 1006.9
20260506165804 18 0.0 0.0 0.00 0.00 0.00 58 1006.9
20260506163802 18 0.0 0.0 0.00 0.00 0.00 58 1006.6
20260506161801 19 0.0 0.0 0.00 0.00 0.00 63 1006.7
20260506155800 19 0.0 0.0 0.00 0.00 0.00 62 1006.8
20260506153758 20 0.0 0.0 0.00 0.00 0.00 63 1006.5
20260506151757 20 0.0 0.0 0.00 0.00 0.00 62 1006.6
20260506145756 20 0.0 0.0 0.00 0.00 0.00 61 1006.6